Ft. Stewart, GA

10:08 AM EDT on July 22, 2017 (GMT -0400)
Wright Army Air Field

Weather History for KLHW - February, 2013

Change the Weather History Date:

Friday, February 8, 2013

  Actual Average Record
Temperature  
Mean Temperature 56 °F -  
Max Temperature 64 °F 61 °F 78 °F (1965)
Min Temperature 48 °F 38 °F 26 °F (1975)
Degree Days  
Heating Degree Days 9    
Growing Degree Days 6 (Base 50)    
Moisture  
Dew Point 50 °F    
Average Humidity 88    
Maximum Humidity 100    
Minimum Humidity 63    
Precipitation  
Precipitation 0.00 in - - ()
Sea Level Pressure  
Sea Level Pressure 29.96 in    
Wind  
Wind Speed 8 mph (WNW)    
Max Wind Speed 12 mph    
Max Gust Speed -    
Visibility 10 miles    
Events      
Averages and records for this station are not official NWS values.
T = Trace of Precipitation, MM = Missing Value Source: NWS Daily Summary

Daily Weather History Graph

Daily Weather History Graph

Search for Another Location

Airport or City:

Trip Planner

Search our weather history database for the weather conditions in past years. The results will help you decide how hot, cold, wet, or windy it might be!

Date:

Astronomy

Feb. 08, 2013 Rise Set
Actual Time 7:14 AM EST 6:06 PM EST
Civil Twilight 6:49 AM EST 6:32 PM EST
Nautical Twilight 6:20 AM EST 7:01 PM EST
Astronomical Twilight 5:51 AM EST 7:29 PM EST
Moon 5:38 AM EST (2/8) 4:40 PM EST (2/8)
Length of Visible Light 11h 43m
Length of Day
10h 52m
Waning Crescent, 3% of the Moon is Illuminated
Feb 8
Waning Crescent
Feb 10
New
Feb 17
First Quarter
Feb 25
Full
Mar 4
Last Quarter

Hourly Weather History & Observations

Time (EST) Temp. Dew Point Humidity Pressure Visibility Wind Dir Wind Speed Gust Speed Precip Events Conditions
12:00 AM 53.6 °F 53.6 °F 100% 29.83 in 9.0 mi NW 9.2 mph - N/A   Overcast
12:01 AM 53.6 °F 53.6 °F 100% 29.83 in 9.0 mi NW 9.2 mph - N/A   Overcast
12:03 AM 53.6 °F 53.6 °F 100% 29.83 in 9.0 mi WNW 11.5 mph - N/A   Overcast
12:53 AM 51.8 °F 51.8 °F 100% 29.85 in 10.0 mi WNW 8.1 mph - N/A   Overcast
12:55 AM 52.3 °F 52.2 °F 99% 29.85 in 10.0 mi NW 8.1 mph - N/A   Overcast
1:55 AM 51.6 °F 50.7 °F 97% 29.87 in 10.0 mi WNW 10.4 mph - N/A   Overcast
2:55 AM 50.7 °F 49.6 °F 96% 29.87 in 10.0 mi NW 8.1 mph - N/A   Overcast
3:21 AM 50.0 °F 48.2 °F 94% 29.86 in 10.0 mi NW 6.9 mph - N/A   Overcast
3:23 AM 50.0 °F 48.2 °F 94% 29.86 in 10.0 mi NW 5.8 mph - N/A   Overcast
3:40 AM 50.0 °F 48.2 °F 94% 29.87 in 10.0 mi WNW 6.9 mph - N/A   Overcast
3:55 AM 50.2 °F 48.2 °F 93% 29.87 in 10.0 mi WNW 9.2 mph - N/A   Overcast
4:10 AM 50.0 °F 48.2 °F 94% 29.88 in 10.0 mi NW 5.8 mph - N/A   Overcast
4:55 AM 49.6 °F 47.8 °F 94% 29.90 in 10.0 mi NW 11.5 mph - N/A   Overcast
5:31 AM 48.2 °F 48.2 °F 100% 29.91 in 10.0 mi NW 10.4 mph - N/A   Overcast
5:55 AM 48.6 °F 47.8 °F 97% 29.92 in 10.0 mi NW 5.8 mph - N/A   Overcast
6:22 AM 48.2 °F 48.2 °F 100% 29.94 in 10.0 mi NW 5.8 mph - N/A   Overcast
6:25 AM 48.2 °F 48.2 °F 100% 29.94 in 10.0 mi NW 8.1 mph - N/A   Overcast
6:55 AM 48.4 °F 47.5 °F 97% 29.95 in 10.0 mi NW 6.9 mph - N/A   Overcast
7:08 AM 48.2 °F 48.2 °F 100% 29.95 in 10.0 mi NW 5.8 mph - N/A   Overcast
7:29 AM 48.2 °F 48.2 °F 100% 29.96 in 10.0 mi NW 8.1 mph - N/A   Overcast
7:40 AM 48.2 °F 48.2 °F 100% 29.97 in 8.0 mi NW 8.1 mph - N/A   Overcast
7:55 AM 48.2 °F 47.8 °F 99% 29.98 in 4.0 mi WNW 5.8 mph - N/A   Overcast
8:28 AM 48.2 °F 48.2 °F 100% 29.99 in 10.0 mi WNW 4.6 mph - N/A   Overcast
8:52 AM 48.2 °F 48.2 °F 100% 30.00 in 10.0 mi WNW 9.2 mph - N/A   Overcast
8:55 AM 48.7 °F 48.0 °F 97% 30.00 in 10.0 mi WNW 10.4 mph - N/A   Overcast
9:01 AM 48.2 °F 48.2 °F 100% 30.00 in 10.0 mi WNW 6.9 mph - N/A   Overcast
9:18 AM 50.0 °F 48.2 °F 94% 30.00 in 10.0 mi NW 6.9 mph - N/A   Overcast
9:28 AM 50.0 °F 48.2 °F 94% 30.01 in 10.0 mi WNW 8.1 mph - N/A   Overcast
9:37 AM 50.0 °F 48.2 °F 94% 30.01 in 10.0 mi WNW 9.2 mph - N/A   Overcast
9:55 AM 49.8 °F 48.4 °F 95% 30.01 in 10.0 mi West 6.9 mph - N/A   Overcast
10:05 AM 50.0 °F 48.2 °F 94% 30.01 in 10.0 mi West 8.1 mph - N/A   Overcast
10:53 AM 51.8 °F 48.2 °F 88% 30.01 in 10.0 mi West 6.9 mph - N/A   Overcast
10:55 AM 51.8 °F 47.8 °F 86% 30.01 in 10.0 mi West 6.9 mph - N/A   Overcast
11:55 AM 53.6 °F 47.5 °F 80% 30.00 in 10.0 mi West 10.4 mph - N/A   Overcast
12:20 PM 53.6 °F 48.2 °F 82% 30.00 in 10.0 mi West 6.9 mph - N/A   Overcast
12:55 PM 56.7 °F 48.2 °F 73% 29.99 in 10.0 mi WNW 8.1 mph - N/A   Overcast
1:55 PM 59.7 °F 49.1 °F 68% 29.98 in 10.0 mi WSW 10.4 mph - N/A   Mostly Cloudy
2:55 PM 61.3 °F 50.4 °F 67% 29.98 in 10.0 mi WSW 11.5 mph - N/A   Overcast
3:54 PM 62.6 °F 50.0 °F 63% 29.97 in 10.0 mi WSW 10.4 mph - N/A   Overcast
3:55 PM 63.1 °F 50.9 °F 64% 29.97 in 10.0 mi SW 10.4 mph - N/A   Overcast
4:06 PM 64.4 °F 51.8 °F 64% 29.97 in 10.0 mi WSW 10.4 mph - N/A   Mostly Cloudy
4:07 PM 64.4 °F 51.8 °F 64% 29.97 in 10.0 mi WSW 8.1 mph - N/A   Mostly Cloudy
4:11 PM 62.6 °F 51.8 °F 68% 29.97 in 10.0 mi SW 9.2 mph - N/A   Mostly Cloudy
4:13 PM 62.6 °F 51.8 °F 68% 29.97 in 10.0 mi SW 9.2 mph - N/A   Mostly Cloudy
4:18 PM 62.6 °F 51.8 °F 68% 29.97 in 10.0 mi SW 6.9 mph - N/A   Mostly Cloudy
4:20 PM 62.6 °F 51.8 °F 68% 29.97 in 10.0 mi WSW 6.9 mph - N/A   Mostly Cloudy
4:34 PM 62.6 °F 51.8 °F 68% 29.97 in 10.0 mi WSW 8.1 mph - N/A   Scattered Clouds
4:55 PM 62.6 °F 51.4 °F 67% 29.97 in 10.0 mi SSW 6.9 mph - N/A   Partly Cloudy
5:55 PM 60.1 °F 52.0 °F 75% 29.98 in 10.0 mi SW 5.8 mph - N/A   Clear
6:55 PM 57.2 °F 51.6 °F 82% 30.01 in 10.0 mi WSW 8.1 mph - N/A   Clear
7:55 PM 55.0 °F 50.7 °F 85% 30.03 in 10.0 mi WSW 5.8 mph - N/A   Clear
8:55 PM 54.3 °F 51.3 °F 89% 30.05 in 10.0 mi WNW 4.6 mph - N/A   Mostly Cloudy
9:55 PM 55.4 °F 51.3 °F 86% 30.06 in 10.0 mi WSW 4.6 mph - N/A   Overcast
10:55 PM 52.7 °F 50.4 °F 92% 30.07 in 10.0 mi West 4.6 mph - N/A   Clear
11:55 PM 49.1 °F 49.1 °F 100% 30.09 in 10.0 mi Calm Calm - N/A   Clear